Regional Weather Roundup
Issued by NWS Charleston, WV

Home | Current Version | Previous Version | Graphics & Text | Print | Product List | Glossary On
Versions: 1 2 3 4 5 6 7 8 9 10 11 12 13 14 15 16 17 18 19 20 21 22 23 24 25 26 27 28
000
ASUS41 KRLX 242310
RWRRLX
West Virginia Regional Weather Roundup
National Weather Service Charleston WV
700 PM EDT FRI OCT 24 2014

Note: "fair" indicates few or no clouds below 12,000 feet with no
significant weather and/or obstructions to visibility.

WVZ003-250000-
Northern Panhandle of West Virginia

CITY           SKY/WX    TMP DP  RH WIND       PRES   REMARKS
WHEELING       CLEAR     55  38  52 W5        30.01R
$$

WVZ009-250000-
Northwest West Virginia

CITY           SKY/WX    TMP DP  RH WIND       PRES   REMARKS
PARKERSBURG    CLEAR     56  40  55 CALM      30.05S
$$

WVZ006-250000-
Western West Virginia

CITY           SKY/WX    TMP DP  RH WIND       PRES   REMARKS
HUNTINGTON     CLEAR     59  40  49 CALM      30.04S
$$

WVZ015-250000-
West Central West Virginia

CITY           SKY/WX    TMP DP  RH WIND       PRES   REMARKS
CHARLESTON     CLEAR     57  41  55 SW3       30.04R
$$

WVZ022-031-250000-
North Central West Virginia

CITY           SKY/WX    TMP DP  RH WIND       PRES   REMARKS
CLARKSBURG     CLEAR     53  38  56 SW3       30.02S
MORGANTOWN     CLEAR     59  36  42 CALM      30.03R
$$

WVZ025-035-042-045-250000-
Southern West Virginia

CITY           SKY/WX    TMP DP  RH WIND       PRES   REMARKS
BECKLEY        CLEAR     51  37  58 CALM      30.05S
LOGAN            N/A     54  41  62 CALM      30.05S
BLUEFIELD      CLEAR     53  36  52 NW6       30.07R
LEWISBURG      MOCLDY    55  35  46 W5        30.04R
$$

WVZ047-250000-
Northern Mountains of West Virginia

CITY           SKY/WX    TMP DP  RH WIND       PRES   REMARKS
ELKINS         PTCLDY    46  40  79 CALM      30.04S
$$

WVZ052-250000-
Eastern Panhandle of West Virginia

CITY           SKY/WX    TMP DP  RH WIND       PRES   REMARKS
MARTINSBURG    MOCLDY    60  32  34 W5        29.95S
PETERSBURG     PTCLDY    55  33  43 W3        30.00S
$$



USA.gov is the U.S. government's official web portal to all federal, state and local government web resources and services.